Weather History for Tekamah, NE

Change the Weather History Date:

Saturday, January 7, 2012

  Actual Average Record
Temperature  
Mean Temperature 32 °F -  
Max Temperature 44 °F 25 °F 66 °F (2003)
Min Temperature 19 °F 5 °F -21 °F (1968)
Degree Days  
Heating Degree Days 34    
Moisture  
Dew Point 19 °F    
Average Humidity 63    
Maximum Humidity 78    
Minimum Humidity 40    
Precipitation  
Precipitation 0.00 in - - ()
Sea Level Pressure  
Sea Level Pressure 30.19 in    
Wind  
Wind Speed 4 mph (NNW)    
Max Wind Speed 10 mph    
Max Gust Speed -    
Visibility 10 miles    
Events      
Averages and records for this station are not official NWS values.
T = Trace of Precipitation, MM = Missing Value Source: NWS Daily Summary

Daily Weather History Graph

Daily Weather History Graph

Search for Another Location

Airport:

Trip Planner

Search our weather history database for the weather conditions in past years. The results will help you decide how hot, cold, wet, or windy it might be!

Date:

Astronomy

Jan. 07, 2012 Rise Set
Actual Time 7:51 AM CST 5:09 PM CST
Civil Twilight 7:20 AM CST 5:41 PM CST
Nautical Twilight 6:46 AM CST 6:15 PM CST
Astronomical Twilight 6:12 AM CST 6:49 PM CST
Moon 3:54 PM CST (1/7) 6:24 AM CST (1/7)
Length of Visible Light 10h 20m
Length of Day
9h 17m
Waxing Gibbous, 97% of the Moon is Illuminated
Jan 7
Waxing Gibbous
Jan 9
Full
Jan 16
Last Quarter
Jan 23
New
Jan 30
First Quarter

Hourly Weather History & Observations

Time (CST) Temp. Windchill Dew Point Humidity Pressure Visibility Wind Dir Wind Speed Gust Speed Precip Events Conditions
12:54 AM 34.0 °F 26.0 °F 19.0 °F 54% 30.06 in 10.0 mi NW 10.4 mph - N/A   Clear
1:54 AM 30.9 °F 22.2 °F 18.0 °F 59% 30.07 in 10.0 mi NW 10.4 mph - N/A   Clear
2:54 AM 28.0 °F 20.8 °F 17.1 °F 63% 30.09 in 10.0 mi NW 6.9 mph - N/A   Clear
3:54 AM 19.9 °F - 14.0 °F 78% 30.11 in 10.0 mi Calm Calm - N/A   Clear
4:54 AM 26.1 °F 21.9 °F 17.1 °F 69% 30.11 in 10.0 mi NNW 3.5 mph - N/A   Clear
5:54 AM 25.0 °F - 16.0 °F 69% 30.13 in 10.0 mi Calm Calm - N/A   Clear
6:54 AM 21.9 °F 13.4 °F 15.1 °F 75% 30.15 in 10.0 mi NNW 6.9 mph - N/A   Clear
7:54 AM 21.9 °F 14.5 °F 15.1 °F 75% 30.16 in 10.0 mi NNW 5.8 mph - N/A   Clear
8:54 AM 27.0 °F - 19.0 °F 72% 30.18 in 10.0 mi Calm Calm - N/A   Clear
9:54 AM 30.0 °F - 19.9 °F 66% 30.21 in 10.0 mi Calm Calm - N/A   Clear
10:54 AM 34.0 °F - 21.9 °F 61% 30.22 in 10.0 mi Calm Calm - N/A   Clear
11:54 AM 37.0 °F - 21.0 °F 52% 30.22 in 10.0 mi Calm Calm - N/A   Clear
12:54 PM 41.0 °F - 21.0 °F 45% 30.19 in 10.0 mi Calm Calm - N/A   Clear
1:54 PM 42.1 °F - 21.9 °F 45% 30.18 in 10.0 mi Calm Calm - N/A   Clear
2:54 PM 44.1 °F - 21.0 °F 40% 30.18 in 10.0 mi Calm Calm - N/A   Clear
3:54 PM 42.1 °F 38.4 °F 23.0 °F 47% 30.20 in 10.0 mi ESE 5.8 mph - N/A   Clear
4:54 PM 37.9 °F 35.5 °F 23.0 °F 55% 30.21 in 10.0 mi SE 3.5 mph - N/A   Clear
6:54 PM 34.0 °F - 23.0 °F 64% 30.24 in 10.0 mi Calm Calm - N/A   Clear
7:54 PM 32.0 °F - 21.9 °F 66% 30.25 in 10.0 mi Calm Calm - N/A   Clear
8:54 PM 28.0 °F - 19.0 °F 69% 30.27 in 10.0 mi Calm Calm - N/A   Partly Cloudy
9:54 PM 26.1 °F - 19.0 °F 75% 30.27 in 10.0 mi Calm Calm - N/A   Clear
10:54 PM 27.0 °F - 19.9 °F 75% 30.28 in 10.0 mi North - - N/A   Clear
11:54 PM 24.1 °F - 18.0 °F 77% 30.28 in 10.0 mi Calm Calm - N/A   Partly Cloudy